Stations météo

Publicité
St-Nazaire, France (7217): Température de l'air & dewpoint: 10.02.2019 08:00:00 - 16.02.2019 08:00:00 (CET)St-Nazaire, France (7217): Température de l'air 5cm: 10.02.2019 08:00:00 - 16.02.2019 08:00:00 (CET)St-Nazaire, France (7217): Température de l'air -20cm: 10.02.2019 08:00:00 - 16.02.2019 08:00:00 (CET)St-Nazaire, France (7217): Vitesse du vent & gusts: 10.02.2019 08:00:00 - 16.02.2019 08:00:00 (CET)St-Nazaire, France (7217): Direction du vent: 10.02.2019 08:00:00 - 16.02.2019 08:00:00 (CET)St-Nazaire, France (7217): reduced air pressure: 10.02.2019 08:00:00 - 16.02.2019 08:00:00 (CET)St-Nazaire, France (7217): visibility: 10.02.2019 08:00:00 - 16.02.2019 08:00:00 (CET)St-Nazaire, France (7217): Quantités de précipitations: 10.02.2019 08:00:00 - 16.02.2019 08:00:00 (CET)
Date & Time tt [°C] td [°C] tt 5cm [°C] tt -20cm [°C] ff [km/h] ff [knt] fx [km/h] fx [knt] dd ppp [hPa] vv [km] rr [mm]
16.02.2019 08:00:00 - - - - - - - - - - - -
16.02.2019 07:00:00 5,0 4,6 4,6 7,7 3 2 5 3 E 1025,9 0,1 0,0
16.02.2019 06:00:00 3,9 3,3 2,7 7,7 2 1 8 4 NE 1025,9 0,1 0,0
16.02.2019 05:00:00 1,9 1,5 -0,2 7,8 4 2 8 5 E 1025,8 0,1 0,0
16.02.2019 04:00:00 1,8 1,4 -2,4 7,8 5 3 8 5 WNW 1026,1 0,1 0,0
16.02.2019 03:00:00 2,5 1,9 -2,3 7,9 0 0 6 3 N 1026,3 0,1 0,0
16.02.2019 02:00:00 2,1 1,5 -1,5 7,9 5 3 7 4 E 1026,6 0,1 0,0
16.02.2019 01:00:00 1,3 0,6 -1,3 7,9 0 0 3 2 N 1027,0 0,1 0,0
16.02.2019 00:00:00 3,3 2,6 -1,6 7,8 4 2 5 3 E 1026,7 0,1 0,0
15.02.2019 23:00:00 3,8 2,8 -0,9 7,8 3 2 5 3 ENE 1026,7 0,6 0,0
15.02.2019 22:00:00 4,9 3,9 -0,6 7,8 3 2 5 3 WSW 1026,7 0,3 0,0
15.02.2019 21:00:00 6,3 4,9 -0,3 7,7 3 1 6 4 W 1026,6 2,9 0,0
15.02.2019 20:00:00 6,6 4,9 0,9 7,6 4 2 9 5 SW 1026,6 11 0,0
15.02.2019 19:00:00 9,3 6,2 4,9 7,5 8 5 11 6 SW 1026,3 16 0,0
15.02.2019 18:00:00 11,1 6,2 12,8 7,4 8 4 10 5 S 1025,8 26 0,0
15.02.2019 17:00:00 13,3 6,9 17,2 7,4 9 5 14 7 SSW 1025,9 20 0,0
15.02.2019 16:00:00 14,2 6,5 19,9 7,3 9 5 14 7 SSW 1026,0 18 0,0
15.02.2019 15:00:00 14,2 6,8 20,9 7,3 6 4 11 6 SSE 1026,2 19 0,0
15.02.2019 14:00:00 13,3 6,6 19,5 7,3 5 3 12 7 SSE 1026,7 24 0,0
15.02.2019 13:00:00 12,5 6,1 17,3 7,3 6 3 18 10 SSE 1027,5 20 0,0
15.02.2019 12:00:00 10,9 5,4 14,4 7,3 9 5 15 8 SE 1027,6 20 0,0
15.02.2019 11:00:00 9,1 4,9 10,9 7,4 9 5 18 10 ESE 1027,7 20 0,0
15.02.2019 10:00:00 7,3 4,3 7,0 7,4 11 6 21 11 ESE 1027,6 18 0,0
15.02.2019 09:00:00 5,7 3,4 1,6 7,4 13 7 22 12 E 1027,4 17 0,0
15.02.2019 08:00:00 3,9 1,6 2,0 7,5 13 7 29 16 E 1027,1 15 0,0
15.02.2019 07:00:00 5,6 2,4 2,5 7,5 21 11 29 16 ESE 1027,3 18 0,0
15.02.2019 06:00:00 5,0 2,2 2,8 7,6 15 8 24 13 E 1027,2 19 0,0
15.02.2019 05:00:00 4,7 1,9 3,1 7,6 14 8 22 12 E 1027,1 18 0,0
15.02.2019 04:00:00 4,7 2,6 1,6 7,6 15 8 20 11 E 1027,2 17 0,0
15.02.2019 03:00:00 4,6 2,1 2,6 7,6 14 8 21 11 E 1027,5 16 0,0
15.02.2019 02:00:00 5,6 3,3 0,6 7,7 16 9 21 11 E 1027,8 16 0,0
15.02.2019 01:00:00 5,0 2,9 0,3 7,6 5 3 16 9 E 1027,9 11 0,0
15.02.2019 00:00:00 5,8 3,6 0,7 7,6 9 5 15 8 E 1028,0 14 0,0
14.02.2019 23:00:00 6,6 3,7 3,0 7,6 9 5 12 6 E 1028,1 14 0,0
14.02.2019 22:00:00 7,0 4,5 0,3 7,5 5 3 14 8 E 1028,2 14 0,0
14.02.2019 21:00:00 7,5 4,3 3,5 7,5 8 5 13 7 E 1028,3 20 0,0
14.02.2019 20:00:00 9,1 5,1 4,7 7,4 11 6 19 10 ESE 1028,3 16 0,0
14.02.2019 19:00:00 9,6 5,0 5,6 7,3 10 5 17 9 SE 1028,4 29 0,0
14.02.2019 18:00:00 10,8 5,5 11,0 7,2 12 6 23 13 SE 1028,2 36 0,0
14.02.2019 17:00:00 12,9 5,8 16,1 7,2 16 9 21 11 ESE 1028,3 20 0,0
14.02.2019 16:00:00 13,2 6,1 17,6 7,1 14 8 23 12 E 1028,5 19 0,0
14.02.2019 15:00:00 12,8 6,2 17,1 7,2 14 7 20 11 E 1029,0 20 0,0
14.02.2019 14:00:00 11,4 5,3 16,1 7,2 10 5 20 11 E 1029,8 20 0,0
14.02.2019 13:00:00 10,1 5,1 13,7 7,2 15 8 21 12 SE 1030,5 20 0,0
14.02.2019 12:00:00 8,8 4,4 12,2 7,3 16 8 23 12 SE 1031,0 20 0,0
14.02.2019 11:00:00 6,8 3,0 8,2 7,4 13 7 21 12 ESE 1031,1 10 0,0
14.02.2019 10:00:00 5,0 1,5 2,8 7,5 14 8 21 12 ESE 1031,3 16 0,0
14.02.2019 09:00:00 1,8 0,5 -0,9 7,5 13 7 20 11 E 1031,0 14 0,0
14.02.2019 08:00:00 1,1 -0,2 -1,0 7,6 8 5 14 8 ENE 1030,7 10 0,0
14.02.2019 07:00:00 1,1 -0,1 -1,8 7,6 9 5 15 8 ENE 1030,5 11 0,0
14.02.2019 06:00:00 0,9 -0,7 -1,5 7,7 11 6 13 7 ENE 1030,7 9 0,0
14.02.2019 05:00:00 2,3 0,8 -0,8 7,8 8 4 13 7 ENE 1030,8 10 0,0
14.02.2019 04:00:00 1,8 0,3 -2,3 7,8 9 5 14 8 E 1031,0 11 0,0
14.02.2019 03:00:00 0,8 -0,8 -1,5 7,8 11 6 13 7 E 1031,2 12 0,0
14.02.2019 02:00:00 2,4 0,8 -0,9 7,9 9 5 18 10 ENE 1031,5 13 0,0
14.02.2019 01:00:00 1,9 0,1 -1,0 7,9 12 6 16 9 E 1031,7 15 0,0
14.02.2019 00:00:00 1,8 0,2 -2,4 7,9 12 7 15 8 E 1031,6 15 0,0
13.02.2019 23:00:00 1,8 0,0 -2,6 7,9 11 6 12 6 E 1031,9 18 0,0
13.02.2019 22:00:00 4,4 1,1 -0,5 7,9 9 5 11 6 ENE 1031,9 21 0,0
13.02.2019 21:00:00 6,0 1,9 0,2 7,8 9 5 12 6 ENE 1031,9 25 0,0
13.02.2019 20:00:00 4,4 1,2 0,5 7,8 11 6 15 8 ENE 1031,8 30 0,0
13.02.2019 19:00:00 6,2 2,5 1,2 7,8 9 5 17 9 E 1031,7 41 0,0
13.02.2019 18:00:00 8,2 2,6 7,3 7,7 11 6 21 11 ENE 1031,5 55 0,0
13.02.2019 17:00:00 10,3 3,6 12,6 7,7 14 8 25 13 ENE 1031,5 49 0,0
13.02.2019 16:00:00 10,9 3,7 14,2 7,7 13 7 23 12 ENE 1031,9 20 0,0
13.02.2019 15:00:00 10,9 3,2 14,9 7,7 12 7 23 12 ENE 1032,1 45 0,0
13.02.2019 14:00:00 9,8 3,1 12,5 7,7 15 8 29 15 ESE 1032,7 20 0,0
13.02.2019 13:00:00 8,7 2,5 11,7 7,7 21 11 31 17 E 1033,5 25 0,0
13.02.2019 12:00:00 7,8 3,1 9,1 7,8 17 9 32 17 E 1034,2 19 0,0
13.02.2019 11:00:00 6,1 2,5 6,6 7,9 16 8 24 13 E 1034,4 19 0,0
13.02.2019 10:00:00 4,3 2,8 1,9 7,9 11 6 16 9 E 1034,3 17 0,0
13.02.2019 09:00:00 1,8 0,8 -0,7 8,0 10 5 13 7 E 1034,3 12 0,0
13.02.2019 08:00:00 1,4 0,5 -1,3 8,1 10 5 14 8 E 1034,1 8 0,0
13.02.2019 07:00:00 1,2 0,3 -0,8 8,2 11 6 16 9 E 1034,2 8 0,0
13.02.2019 06:00:00 1,3 0,4 -1,5 8,2 13 7 15 8 E 1034,3 8 0,0
13.02.2019 05:00:00 1,9 0,9 -0,8 8,2 9 5 15 8 E 1034,2 10 0,0
13.02.2019 04:00:00 1,9 0,7 -1,3 8,3 11 6 15 8 E 1034,4 9 0,0
13.02.2019 03:00:00 2,7 1,5 0,1 8,3 8 5 16 9 ESE 1034,7 10 0,0
13.02.2019 02:00:00 3,4 2,4 0,1 8,4 9 5 16 9 ESE 1034,9 11 0,0
13.02.2019 01:00:00 3,6 2,7 -0,8 8,4 8 4 11 6 E 1035,1 11 0,0
13.02.2019 00:00:00 3,7 3,0 -1,0 8,4 8 4 10 5 ENE 1035,2 12 0,0
12.02.2019 23:00:00 3,7 2,8 -0,2 8,4 6 4 8 4 ENE 1035,4 0,3 0,0
12.02.2019 22:00:00 5,2 4,5 -0,2 8,4 0 0 10 5 N 1035,4 0,5 0,0
12.02.2019 21:00:00 5,0 3,7 0,4 8,3 4 2 9 5 ENE 1035,5 0,3 0,0
12.02.2019 20:00:00 8,3 6,4 2,0 8,2 8 4 12 6 NW 1035,6 19 0,0
12.02.2019 19:00:00 7,9 4,1 2,9 8,2 4 2 9 5 WSW 1035,4 48 0,0
12.02.2019 18:00:00 9,5 5,5 10,6 8,1 7 4 9 5 S 1034,9 36 0,0
12.02.2019 17:00:00 11,2 4,6 12,5 8,1 7 4 13 7 SSW 1035,0 53 0,0
12.02.2019 16:00:00 11,7 5,6 17,7 8,0 8 5 13 7 S 1035,0 20 0,0
12.02.2019 15:00:00 11,3 5,6 16,7 8,1 10 6 18 10 S 1035,1 60 0,0
12.02.2019 14:00:00 10,7 5,4 16,2 8,1 13 7 19 10 SSW 1035,8 38 0,0
12.02.2019 13:00:00 10,4 6,9 14,5 8,2 11 6 19 10 SSW 1036,3 10 0,0
12.02.2019 12:00:00 9,7 5,3 13,6 8,2 6 3 11 6 SSW 1036,6 11 0,0
12.02.2019 11:00:00 7,1 4,4 8,3 8,3 6 3 11 6 SE 1036,2 20 0,0
12.02.2019 10:00:00 4,5 3,8 -0,1 8,4 5 3 9 5 E 1036,1 6 0,0
12.02.2019 09:00:00 1,3 0,6 -1,5 8,5 6 3 9 5 E 1035,9 4,9 0,0
12.02.2019 08:00:00 0,8 -0,1 -1,7 8,5 7 4 11 6 E 1035,4 6 0,0
12.02.2019 07:00:00 1,5 0,6 -1,9 8,6 8 4 10 5 E 1035,3 8 0,0
12.02.2019 06:00:00 2,5 1,5 -1,3 8,6 7 4 8 5 E 1035,1 11 0,0
12.02.2019 05:00:00 2,5 1,3 -1,0 8,7 6 3 9 5 E 1035,0 10 0,0
12.02.2019 04:00:00 3,4 1,9 -1,4 8,7 8 4 10 5 E 1034,9 13 0,0
12.02.2019 03:00:00 3,7 2,2 -1,3 8,7 7 4 10 5 ENE 1034,8 18 0,0
12.02.2019 02:00:00 3,8 2,0 -0,7 8,7 5 3 9 5 NE 1034,8 17 0,0
12.02.2019 01:00:00 4,3 2,2 -0,4 8,8 3 2 5 3 E 1034,3 19 0,0
12.02.2019 00:00:00 6,1 3,3 3,2 8,8 0 0 9 5 N 1034,6 20 0,0
11.02.2019 23:00:00 6,6 3,6 1,5 8,7 4 2 9 5 ESE 1034,4 34 0,0
11.02.2019 22:00:00 5,7 3,0 1,5 8,7 3 1 14 7 NE 1033,8 32 0,0
11.02.2019 21:00:00 7,0 5,1 3,7 8,7 7 4 10 5 NE 1033,4 20 0,0
11.02.2019 20:00:00 6,1 3,9 2,7 8,6 5 3 9 5 NE 1032,8 20 0,0
11.02.2019 19:00:00 9,7 6,0 6,3 8,6 5 3 10 6 WNW 1032,2 42 0,0
11.02.2019 18:00:00 10,6 6,2 10,7 8,6 6 3 19 10 WNW 1031,3 46 0,0
11.02.2019 17:00:00 10,8 5,7 11,1 8,5 12 7 23 12 WNW 1030,6 44 0,0
11.02.2019 16:00:00 10,9 5,2 11,8 8,5 16 8 23 13 W 1029,9 44 0,0
11.02.2019 15:00:00 10,9 5,2 11,7 8,5 14 7 35 19 WNW 1029,6 55 0,0
11.02.2019 14:00:00 11,5 5,4 14,8 8,5 18 10 35 19 WNW 1029,1 43 0,0
11.02.2019 13:00:00 10,4 5,8 11,2 8,5 18 10 37 20 WNW 1029,1 20 0,0
11.02.2019 12:00:00 10,2 5,2 10,4 8,6 19 10 37 20 WNW 1028,8 20 0,0
11.02.2019 11:00:00 9,3 4,9 9,4 8,6 19 10 32 18 WNW 1027,7 20 0,0
11.02.2019 10:00:00 8,6 4,6 8,2 8,6 18 10 30 16 WNW 1027,0 19 0,0
11.02.2019 09:00:00 8,0 4,8 5,8 8,7 19 10 32 17 W 1026,2 18 0,0
11.02.2019 08:00:00 6,8 3,8 5,1 8,7 15 8 27 15 W 1024,8 20 0,0
11.02.2019 07:00:00 6,6 3,2 5,3 8,8 13 7 29 15 W 1024,0 42 0,0
11.02.2019 06:00:00 7,1 3,3 5,2 8,8 19 10 31 17 W 1023,6 44 0,0
11.02.2019 05:00:00 6,4 2,5 5,3 8,9 16 9 27 15 W 1022,9 49 0,0
11.02.2019 04:00:00 6,9 2,4 5,7 8,9 21 12 33 18 W 1022,7 53 0,0
11.02.2019 03:00:00 6,9 3,9 5,2 9,0 16 9 26 14 W 1022,2 37 0,0
11.02.2019 02:00:00 6,2 4,0 5,0 9,0 16 8 24 13 W 1021,7 38 0,0
11.02.2019 01:00:00 6,1 3,4 5,1 9,0 13 7 29 16 W 1021,1 50 0,0
11.02.2019 00:00:00 6,9 3,1 6,1 9,1 17 9 34 19 W 1020,5 60 0,0
10.02.2019 23:00:00 7,6 3,1 5,9 9,1 18 10 39 21 W 1019,6 55 0,0
10.02.2019 22:00:00 7,2 2,5 6,3 9,1 22 12 40 22 W 1018,7 59 0,0
10.02.2019 21:00:00 7,8 2,5 7,1 9,1 24 13 46 25 W 1018,0 48 0,0
10.02.2019 20:00:00 7,9 2,4 7,4 9,1 28 15 51 27 W 1017,2 56 0,0
10.02.2019 19:00:00 8,7 1,6 8,0 9,1 29 16 53 29 W 1016,0 56 0,0
10.02.2019 18:00:00 9,2 3,0 9,4 9,2 32 18 58 31 W 1014,6 32 0,0
10.02.2019 17:00:00 9,8 3,7 11,5 9,1 33 18 67 36 W 1013,7 30 0,0
10.02.2019 16:00:00 9,9 2,7 10,6 9,2 35 19 69 37 WNW 1012,4 31 0,0
10.02.2019 15:00:00 10,1 4,2 10,3 9,2 48 26 80 43 W 1011,0 26 0,0
10.02.2019 14:00:00 9,7 3,9 7,8 9,2 45 24 78 42 W 1009,4 20 0,0
10.02.2019 13:00:00 8,4 4,2 6,5 9,2 40 21 87 47 W 1008,5 25 0,4
10.02.2019 12:00:00 9,4 3,4 7,7 9,2 47 25 79 43 W 1007,4 20 0,0
10.02.2019 11:00:00 8,2 4,4 6,1 9,3 29 16 64 35 W 1005,9 38 0,0
10.02.2019 10:00:00 7,0 4,0 6,1 9,2 40 22 66 35 W 1004,5 5 0,8
10.02.2019 09:00:00 8,3 6,3 7,1 9,2 27 15 46 25 WSW 1002,1 20 0,0
10.02.2019 08:00:00 7,5 5,8 6,4 9,2 24 13 64 35 W 1001,6 19 1,8

tt = Température de l'air
td = dewpoint
tt 5cm = Température de l'air 5cm
tt -20cm = Température de l'air -20cm
ff = Vitesse du vent
fx = gusts
dd = Direction du vent
ppp = reduced air pressure
vv = visibility
rr = Quantités de précipitations

stations d'obs. à proximité